TimeCDT,TemperatureF,Dew PointF,Humidity,Sea Level PressureIn,VisibilityMPH,Wind Direction,Wind SpeedMPH,Gust SpeedMPH,PrecipitationIn,Events,Conditions,WindDirDegrees,DateUTC
12:15 AM,55.4,51.8,88,30.08,10.0,Calm,Calm,-,N/A,,Clear,0,2013-10-10 05:15:00
12:35 AM,55.4,51.8,88,30.08,10.0,Calm,Calm,-,N/A,,Clear,0,2013-10-10 05:35:00
12:55 AM,50.0,48.2,94,30.08,10.0,Calm,Calm,-,N/A,,Clear,0,2013-10-10 05:55:00
1:15 AM,51.8,48.2,88,30.08,10.0,Calm,Calm,-,N/A,,Clear,0,2013-10-10 06:15:00
1:35 AM,50.0,48.2,94,30.08,10.0,Calm,Calm,-,N/A,,Clear,0,2013-10-10 06:35:00
1:55 AM,50.0,48.2,94,30.08,10.0,Calm,Calm,-,N/A,,Clear,0,2013-10-10 06:55:00
2:15 AM,48.2,48.2,100,30.08,10.0,Calm,Calm,-,N/A,,Clear,0,2013-10-10 07:15:00
2:35 AM,48.2,46.4,93,30.08,10.0,Calm,Calm,-,N/A,,Clear,0,2013-10-10 07:35:00
2:55 AM,48.2,46.4,93,30.08,10.0,Calm,Calm,-,N/A,,Clear,0,2013-10-10 07:55:00
3:15 AM,50.0,50.0,100,30.08,10.0,Calm,Calm,-,N/A,,Clear,0,2013-10-10 08:15:00
3:35 AM,51.8,51.8,100,30.08,10.0,Calm,Calm,-,N/A,,Clear,0,2013-10-10 08:35:00
3:55 AM,51.8,50.0,94,30.07,10.0,Calm,Calm,-,N/A,,Clear,0,2013-10-10 08:55:00
4:15 AM,51.8,50.0,94,30.07,10.0,Calm,Calm,-,N/A,,Clear,0,2013-10-10 09:15:00
4:35 AM,51.8,50.0,94,30.08,10.0,Calm,Calm,-,N/A,,Clear,0,2013-10-10 09:35:00
4:55 AM,53.6,51.8,94,30.08,10.0,Calm,Calm,-,N/A,,Clear,0,2013-10-10 09:55:00
5:15 AM,53.6,51.8,94,30.09,10.0,Calm,Calm,-,N/A,,Clear,0,2013-10-10 10:15:00
5:35 AM,53.6,51.8,94,30.09,10.0,Calm,Calm,-,N/A,,Clear,0,2013-10-10 10:35:00
5:55 AM,48.2,48.2,100,30.09,10.0,Calm,Calm,-,N/A,,Clear,0,2013-10-10 10:55:00
6:15 AM,50.0,48.2,94,30.09,10.0,Calm,Calm,-,N/A,,Clear,0,2013-10-10 11:15:00
6:35 AM,48.2,46.4,93,30.09,10.0,Calm,Calm,-,N/A,,Clear,0,2013-10-10 11:35:00
6:55 AM,51.8,50.0,94,30.09,10.0,Calm,Calm,-,N/A,,Clear,0,2013-10-10 11:55:00
7:15 AM,48.2,48.2,100,30.10,10.0,Calm,Calm,-,N/A,,Clear,0,2013-10-10 12:15:00
7:35 AM,46.4,44.6,93,30.10,8.0,Calm,Calm,-,N/A,,Clear,0,2013-10-10 12:35:00
7:55 AM,46.4,46.4,100,30.10,8.0,Calm,Calm,-,N/A,,Clear,0,2013-10-10 12:55:00
8:15 AM,50.0,48.2,94,30.11,6.0,Calm,Calm,-,N/A,,Clear,0,2013-10-10 13:15:00
8:35 AM,53.6,53.6,100,30.11,10.0,Calm,Calm,-,N/A,,Clear,0,2013-10-10 13:35:00
8:55 AM,59.0,53.6,82,30.11,10.0,Calm,Calm,-,N/A,,Clear,0,2013-10-10 13:55:00
9:15 AM,62.6,55.4,77,30.10,10.0,South,3.5,-,N/A,,Clear,170,2013-10-10 14:15:00
9:35 AM,64.4,55.4,73,30.10,10.0,South,5.8,-,N/A,,Clear,180,2013-10-10 14:35:00
9:55 AM,66.2,55.4,68,30.11,10.0,South,5.8,-,N/A,,Clear,180,2013-10-10 14:55:00
10:15 AM,68.0,55.4,64,30.11,10.0,South,5.8,-,N/A,,Clear,190,2013-10-10 15:15:00
10:35 AM,69.8,55.4,60,30.11,10.0,South,3.5,-,N/A,,Clear,190,2013-10-10 15:35:00
10:55 AM,69.8,55.4,60,30.11,10.0,South,8.1,-,N/A,,Clear,190,2013-10-10 15:55:00
11:15 AM,71.6,55.4,57,30.11,10.0,South,8.1,-,N/A,,Clear,180,2013-10-10 16:15:00
11:35 AM,73.4,55.4,53,30.10,10.0,South,5.8,-,N/A,,Clear,190,2013-10-10 16:35:00
11:55 AM,73.4,55.4,53,30.09,10.0,SSW,6.9,-,N/A,,Clear,210,2013-10-10 16:55:00
12:15 PM,73.4,53.6,50,30.09,10.0,South,6.9,-,N/A,,Clear,180,2013-10-10 17:15:00
12:35 PM,75.2,55.4,50,30.08,10.0,SW,9.2,-,N/A,,Clear,220,2013-10-10 17:35:00
12:55 PM,75.2,53.6,47,30.07,10.0,South,8.1,-,N/A,,Clear,170,2013-10-10 17:55:00
1:15 PM,77.0,53.6,44,30.06,10.0,SSW,8.1,-,N/A,Rain,Light Rain,200,2013-10-10 18:15:00
1:35 PM,77.0,53.6,44,30.04,10.0,SE,10.4,-,N/A,,Clear,140,2013-10-10 18:35:00
1:55 PM,77.0,53.6,44,30.04,10.0,SSE,9.2,-,N/A,Rain,Light Rain,160,2013-10-10 18:55:00
2:15 PM,78.8,53.6,42,30.03,10.0,SSE,8.1,-,N/A,,Clear,150,2013-10-10 19:15:00
2:35 PM,78.8,53.6,42,30.02,10.0,SE,10.4,-,N/A,,Clear,140,2013-10-10 19:35:00
2:55 PM,78.8,53.6,42,30.01,10.0,SSE,9.2,-,N/A,,Clear,160,2013-10-10 19:55:00
3:15 PM,78.8,53.6,42,30.01,10.0,SSE,9.2,-,N/A,,Clear,160,2013-10-10 20:15:00
3:35 PM,78.8,53.6,42,30.00,10.0,SE,8.1,-,N/A,,Clear,140,2013-10-10 20:35:00
3:55 PM,78.8,53.6,42,30.00,10.0,SE,9.2,-,N/A,,Clear,140,2013-10-10 20:55:00
4:15 PM,78.8,51.8,39,29.99,10.0,SSE,10.4,-,N/A,,Clear,160,2013-10-10 21:15:00
4:35 PM,78.8,51.8,39,29.99,10.0,SSE,11.5,16.1,N/A,,Clear,160,2013-10-10 21:35:00
4:55 PM,78.8,51.8,39,29.98,10.0,SSE,9.2,-,N/A,,Clear,160,2013-10-10 21:55:00
5:15 PM,77.0,53.6,44,29.97,10.0,SE,8.1,-,N/A,,Clear,140,2013-10-10 22:15:00
5:35 PM,77.0,53.6,44,29.97,10.0,SE,10.4,-,N/A,,Clear,140,2013-10-10 22:35:00
5:55 PM,75.2,53.6,47,29.97,10.0,SSE,6.9,-,N/A,,Clear,160,2013-10-10 22:55:00
6:15 PM,73.4,53.6,50,29.96,10.0,SSE,5.8,-,N/A,,Clear,160,2013-10-10 23:15:00
6:35 PM,71.6,53.6,53,29.96,10.0,SSE,5.8,-,N/A,,Clear,150,2013-10-10 23:35:00
6:55 PM,69.8,53.6,56,29.96,10.0,SSE,4.6,-,N/A,,Clear,150,2013-10-10 23:55:00
7:15 PM,68.0,53.6,60,29.96,10.0,Calm,Calm,-,N/A,,Clear,0,2013-10-11 00:15:00
7:35 PM,64.4,53.6,68,29.96,10.0,Calm,Calm,-,N/A,,Clear,0,2013-10-11 00:35:00
7:55 PM,62.6,53.6,72,29.96,10.0,Calm,Calm,-,N/A,,Clear,0,2013-10-11 00:55:00
8:15 PM,62.6,55.4,77,29.96,10.0,Calm,Calm,-,N/A,,Clear,0,2013-10-11 01:15:00
8:35 PM,62.6,55.4,77,29.96,10.0,Calm,Calm,-,N/A,,Clear,0,2013-10-11 01:35:00
8:55 PM,62.6,55.4,77,29.95,10.0,SE,4.6,-,N/A,,Clear,130,2013-10-11 01:55:00
9:15 PM,62.6,55.4,77,29.96,10.0,SE,4.6,-,N/A,,Clear,140,2013-10-11 02:15:00
9:35 PM,60.8,55.4,82,29.95,10.0,SE,4.6,-,N/A,,Clear,130,2013-10-11 02:35:00
9:55 PM,62.6,53.6,72,29.95,10.0,SE,4.6,-,N/A,,Clear,130,2013-10-11 02:55:00
10:15 PM,62.6,53.6,72,29.95,10.0,SE,5.8,-,N/A,,Clear,130,2013-10-11 03:15:00
10:35 PM,60.8,53.6,77,29.95,10.0,ESE,4.6,-,N/A,,Clear,120,2013-10-11 03:35:00
10:55 PM,60.8,53.6,77,29.95,10.0,Calm,Calm,-,N/A,,Clear,0,2013-10-11 03:55:00
11:15 PM,60.8,53.6,77,29.95,10.0,SE,5.8,-,N/A,,Clear,140,2013-10-11 04:15:00
11:35 PM,62.6,55.4,77,29.94,10.0,SE,5.8,-,N/A,,Clear,140,2013-10-11 04:35:00
11:55 PM,62.6,55.4,77,29.93,10.0,SE,8.1,-,N/A,,Clear,130,2013-10-11 04:55:00